When you browse on this site, cookies collect data to enhance your experience and personalize the content and advertising you see.
Visit our Privacy Policy to learn more. By continuing to use the site, you agree to this use of cookies and data.
  • en France
  • Liste des pays
  • À 7 jours
  • Température de l'eau
  • Carte météo
  • Widgets météo
  • user-avatar
    Se connecter

    Météo par heure à Santiago del Estero

    Ce jour, 25 Février, Mardi

    Heure Température Précipitation Vent Pression Humidité
    00:00 +24°C° 0 mm 1 m/s 737 mmHg 55%
    01:00 +24°C° 0 mm 2 m/s 737 mmHg 56%
    02:00 +23°C° 0 mm 2 m/s 737 mmHg 56%
    03:00 +23°C° 0 mm 2 m/s 737 mmHg 57%
    04:00 +21°C° 0 mm 2 m/s 737 mmHg 59%
    05:00 +21°C° 0 mm 2 m/s 738 mmHg 60%
    06:00 +22°C° 0 mm 3 m/s 738 mmHg 57%
    07:00 +24°C° 0 mm 3 m/s 739 mmHg 55%
    08:00 +25°C° 0 mm 3 m/s 740 mmHg 52%
    09:00 +27°C° 0 mm 3 m/s 740 mmHg 47%
    10:00 +29°C° 0 mm 4 m/s 741 mmHg 42%
    11:00 +32°C° 0 mm 4 m/s 741 mmHg 37%
    12:00 +33°C° 0 mm 4 m/s 741 mmHg 35%
    13:00 +34°C° 0 mm 4 m/s 740 mmHg 33%
    14:00 +36°C° 0 mm 3 m/s 740 mmHg 31%
    15:00 +36°C° 0 mm 3 m/s 740 mmHg 31%
    16:00 +35°C° 0 mm 3 m/s 740 mmHg 31%
    17:00 +35°C° 0 mm 3 m/s 740 mmHg 32%
    18:00 +34°C° 0 mm 3 m/s 740 mmHg 35%
    19:00 +31°C° 0 mm 2 m/s 741 mmHg 39%
    20:00 +29°C° 0 mm 2 m/s 742 mmHg 42%
    21:00 +28°C° 0 mm 2 m/s 742 mmHg 44%
    22:00 +26°C° 0 mm 2 m/s 743 mmHg 45%
    23:00 +25°C° 0 mm 2 m/s 744 mmHg 47%

    Demain, 26 Février, Mercredi

    Heure Température Précipitation Vent Pression Humidité
    00:00 +24°C° 0 mm 2 m/s 743 mmHg 49%
    01:00 +23°C° 0 mm 1 m/s 743 mmHg 52%
    02:00 +22°C° 0 mm 1 m/s 743 mmHg 54%
    03:00 +22°C° 0 mm 1 m/s 743 mmHg 54%
    04:00 +22°C° 0 mm 1 m/s 743 mmHg 54%
    05:00 +22°C° 0 mm 1 m/s 743 mmHg 55%
    06:00 +24°C° 0 mm 1 m/s 744 mmHg 50%
    07:00 +26°C° 0 mm 1 m/s 744 mmHg 46%
    08:00 +28°C° 0 mm 1 m/s 744 mmHg 42%
    09:00 +29°C° 0 mm 1 m/s 744 mmHg 38%
    10:00 +31°C° 0 mm 2 m/s 744 mmHg 33%
    11:00 +34°C° 0 mm 2 m/s 745 mmHg 29%
    12:00 +35°C° 0 mm 2 m/s 744 mmHg 27%
    13:00 +36°C° 0 mm 2 m/s 743 mmHg 26%
    14:00 +37°C° 0 mm 2 m/s 742 mmHg 24%
    15:00 +37°C° 0 mm 2 m/s 742 mmHg 23%
    16:00 +37°C° 0 mm 3 m/s 741 mmHg 22%
    17:00 +37°C° 0 mm 4 m/s 740 mmHg 22%
    18:00 +34°C° 0 mm 3 m/s 741 mmHg 25%
    19:00 +30°C° 0 mm 2 m/s 741 mmHg 28%
    20:00 +27°C° 0 mm 2 m/s 741 mmHg 32%
    21:00 +27°C° 0 mm 2 m/s 742 mmHg 32%
    22:00 +26°C° 0 mm 3 m/s 742 mmHg 33%
    23:00 +26°C° 0 mm 3 m/s 743 mmHg 33%

    Après-demain, 27 Février, Jeudi

    Heure Température Précipitation Vent Pression Humidité
    00:00 +25°C° 0 mm 3 m/s 742 mmHg 35%
    01:00 +24°C° 0 mm 2 m/s 742 mmHg 36%
    02:00 +23°C° 0 mm 2 m/s 742 mmHg 38%
    03:00 +22°C° 0 mm 1 m/s 742 mmHg 40%
    04:00 +21°C° 0 mm 1 m/s 742 mmHg 42%
    05:00 +20°C° 0 mm 1 m/s 742 mmHg 44%
    06:00 +22°C° 0 mm 1 m/s 742 mmHg 41%
    07:00 +24°C° 0 mm 1 m/s 743 mmHg 37%
    08:00 +26°C° 0 mm 1 m/s 743 mmHg 33%
    09:00 +28°C° 0 mm 2 m/s 743 mmHg 30%
    10:00 +31°C° 0 mm 2 m/s 743 mmHg 27%
    11:00 +34°C° 0 mm 3 m/s 743 mmHg 24%
    12:00 +35°C° 0 mm 3 m/s 742 mmHg 23%
    13:00 +36°C° 0 mm 3 m/s 742 mmHg 21%
    14:00 +38°C° 0 mm 3 m/s 741 mmHg 20%
    15:00 +38°C° 0 mm 4 m/s 740 mmHg 20%
    16:00 +38°C° 0 mm 4 m/s 740 mmHg 20%
    17:00 +38°C° 0 mm 4 m/s 739 mmHg 20%
    18:00 +35°C° 0 mm 4 m/s 739 mmHg 23%
    19:00 +33°C° 0 mm 4 m/s 740 mmHg 25%
    20:00 +29°C° 0 mm 3 m/s 740 mmHg 28%
    21:00 +28°C° 0 mm 3 m/s 740 mmHg 30%
    22:00 +27°C° 0 mm 3 m/s 741 mmHg 33%
    23:00 +26°C° 0 mm 3 m/s 741 mmHg 35%

    28 Février, Vendredi

    Heure Température Précipitation Vent Pression Humidité
    00:00 +25°C° 0 mm 3 m/s 741 mmHg 37%
    01:00 +24°C° 0 mm 2 m/s 740 mmHg 39%
    02:00 +23°C° 0 mm 2 m/s 740 mmHg 41%
    03:00 +23°C° 0 mm 2 m/s 740 mmHg 43%
    04:00 +21°C° 0 mm 2 m/s 741 mmHg 45%
    05:00 +21°C° 0 mm 1 m/s 741 mmHg 47%
    06:00 +23°C° 0 mm 1 m/s 741 mmHg 44%
    07:00 +25°C° 0 mm 2 m/s 742 mmHg 40%
    08:00 +27°C° 0 mm 2 m/s 742 mmHg 37%
    09:00 +29°C° 0 mm 2 m/s 742 mmHg 33%
    10:00 +33°C° 0 mm 3 m/s 742 mmHg 29%
    11:00 +35°C° 0 mm 4 m/s 742 mmHg 25%
    12:00 +36°C° 0 mm 4 m/s 741 mmHg 23%
    13:00 +38°C° 0 mm 4 m/s 741 mmHg 20%
    14:00 +40°C° 0 mm 4 m/s 740 mmHg 18%
    15:00 +40°C° 0 mm 4 m/s 740 mmHg 19%
    16:00 +39°C° 0 mm 3 m/s 740 mmHg 19%
    17:00 +39°C° 0 mm 3 m/s 739 mmHg 19%
    18:00 +37°C° 0 mm 3 m/s 740 mmHg 22%
    19:00 +34°C° 0 mm 3 m/s 740 mmHg 26%
    20:00 +31°C° 0 mm 3 m/s 741 mmHg 29%
    21:00 +29°C° 0 mm 3 m/s 741 mmHg 31%
    22:00 +28°C° 0 mm 2 m/s 741 mmHg 33%
    23:00 +27°C° 0 mm 2 m/s 742 mmHg 36%

    29 Février, Samedi

    Heure Température Précipitation Vent Pression Humidité
    00:00 +26°C° 0 mm 2 m/s 742 mmHg 37%
    01:00 +26°C° 0 mm 2 m/s 742 mmHg 38%
    02:00 +25°C° 0 mm 1 m/s 742 mmHg 40%
    03:00 +25°C° 0 mm 1 m/s 743 mmHg 42%
    04:00 +24°C° 0 mm 1 m/s 743 mmHg 43%
    05:00 +24°C° 0 mm 1 m/s 744 mmHg 45%
    06:00 +26°C° 0 mm 1 m/s 744 mmHg 42%
    07:00 +28°C° 0 mm 1 m/s 745 mmHg 39%
    08:00 +29°C° 0 mm 1 m/s 746 mmHg 36%
    09:00 +32°C° 0 mm 2 m/s 745 mmHg 32%
    10:00 +35°C° 0 mm 2 m/s 745 mmHg 28%
    11:00 +37°C° 0 mm 2 m/s 745 mmHg 23%
    12:00 +38°C° 0 mm 2 m/s 745 mmHg 21%
    13:00 +39°C° 0 mm 2 m/s 744 mmHg 20%
    14:00 +40°C° 0 mm 3 m/s 744 mmHg 18%
    15:00 +40°C° 0 mm 2 m/s 743 mmHg 17%
    16:00 +40°C° 0 mm 2 m/s 743 mmHg 17%
    17:00 +40°C° 0 mm 2 m/s 742 mmHg 17%
    18:00 +36°C° 0 mm 2 m/s 743 mmHg 21%
    19:00 +32°C° 0 mm 1 m/s 743 mmHg 25%
    20:00 +29°C° 0 mm 1 m/s 743 mmHg 29%
    21:00 +29°C° 0 mm 2 m/s 743 mmHg 29%
    22:00 +29°C° 0 mm 2 m/s 744 mmHg 29%
    23:00 +29°C° 0 mm 3 m/s 744 mmHg 28%

    1 Mars, Dimanche

    Heure Température Précipitation Vent Pression Humidité
    00:00 +28°C° 0 mm 3 m/s 744 mmHg 30%
    01:00 +27°C° 0 mm 2 m/s 744 mmHg 32%
    02:00 +26°C° 0 mm 2 m/s 744 mmHg 34%
    03:00 +25°C° 0 mm 2 m/s 744 mmHg 36%
    04:00 +25°C° 0 mm 2 m/s 744 mmHg 39%
    05:00 +24°C° 0 mm 2 m/s 744 mmHg 41%
    06:00 +26°C° 0 mm 2 m/s 744 mmHg 39%
    07:00 +28°C° 0 mm 2 m/s 745 mmHg 38%
    08:00 +30°C° 0 mm 2 m/s 745 mmHg 37%
    09:00 +34°C° 0 mm 3 m/s 745 mmHg 31%
    10:00 +36°C° 0 mm 4 m/s 745 mmHg 25%
    11:00 +40°C° 0 mm 4 m/s 745 mmHg 19%
    12:00 +41°C° 0 mm 5 m/s 744 mmHg 17%
    13:00 +42°C° 0 mm 5 m/s 744 mmHg 15%
    14:00 +43°C° 0 mm 5 m/s 743 mmHg 14%
    15:00 +42°C° 0 mm 5 m/s 742 mmHg 14%
    16:00 +42°C° 0 mm 5 m/s 742 mmHg 14%
    17:00 +41°C° 0 mm 5 m/s 741 mmHg 15%
    18:00 +38°C° 0 mm 4 m/s 741 mmHg 18%
    19:00 +35°C° 0 mm 4 m/s 741 mmHg 20%
    20:00 +31°C° 0 mm 3 m/s 741 mmHg 23%
    21:00 +30°C° 0 mm 4 m/s 742 mmHg 25%
    22:00 +29°C° 0 mm 4 m/s 742 mmHg 27%
    23:00 +29°C° 0 mm 4 m/s 742 mmHg 29%
    Voir plus